Flag for Morocco Weather past 2 weeks in Rabat, Morocco

Now
90 °F

Thunderstorms. Partly cloudy.


Feels Like: 90 °F
Forecast: 70 / 79 °F
Wind: 5 mph from South

Location: Rabat-Sale

Current Time: Aug 29, 2015 at 9:05:23 PM

Latest Report: Aug 29, 2015 at 8:30 PM


Visibility: 3 mi

Pressure: 29.80 "Hg

Humidity: 38%

Dew point: 61 °F

Location of RabatLocation

Historic Weather in Rabat — Graph

°F

Rabat temperature yesterday

Maximum temperature yesterday: 82 °F (at 5:00 PM)
Minimum temperature yesterday: 63 °F (at 6:30 AM)
Average temperature yesterday: 74 °F

Past Weeks' High & Low Weather Summary

 TemperatureHumidityPressure
High108 °F (Aug 29, 2:30 PM)94% (Aug 15, 2:00 AM)30.12 "Hg (Aug 15, 2:00 AM)
Low55 °F (Aug 15, 3:30 AM)13% (Aug 29, 2:30 PM)29.77 "Hg (Aug 29, 4:30 PM)
Average72 °F74%30.00 "Hg
* Reported Aug 14 8:00 PM — Aug 29 8:02 PM, Rabat, Weather by CustomWeather, © 2015

Note: Actual official high and low records may vary slightly from our data, if they occured in-between our weather recording intervals... More about our weather records

Advertising

Rabat weather history for previous 24 hours

 ConditionsComfort  
Time TempWeatherWind HumidityBarometerVisibility
8:02 PM
Sat, Aug 29
90 °FThunderstorms. Passing clouds.3 mph38%29.80 "Hg3 mi
8:00 PM91 °FPassing clouds.2 mph34%29.80 "Hg4 mi
7:30 PM93 °FBroken clouds.3 mph32%29.77 "Hg5 mi
7:00 PM91 °FBroken clouds.3 mph36%29.77 "Hg5 mi
6:30 PM90 °FClear.9 mph38%29.77 "Hg5 mi
6:00 PM90 °FClear.10 mph43%29.77 "Hg5 mi
5:30 PM88 °FClear.14 mph49%29.80 "Hg5 mi
5:00 PM91 °FClear.9 mph44%29.80 "Hg5 mi
4:30 PM97 °FClear.7 mph32%29.77 "Hg4 mi
4:00 PM99 °FClear.9 mph25%29.80 "Hg5 mi
3:30 PM100 °FExtremely hot.7 mph24%29.80 "HgN/A
3:00 PM102 °FClear.12 mph21%29.80 "Hg5 mi
2:30 PM108 °FClear.7 mph13%29.80 "Hg5 mi
2:00 PM106 °FClear.8 mph14%29.80 "Hg5 mi
1:30 PM104 °FClear.14 mph14%29.83 "Hg5 mi
1:00 PM104 °FClear.10 mph15%29.83 "Hg5 mi
12:30 PM102 °FClear.5 mph21%29.86 "Hg5 mi
12:00 PM102 °FClear.3 mph18%29.86 "Hg5 mi
11:00 AM93 °FClear.8 mph32%29.86 "Hg5 mi
10:30 AM91 °FClear.7 mph34%29.86 "Hg5 mi
10:00 AM88 °FClear.5 mph46%29.86 "Hg5 mi
8:30 AM81 °FScattered clouds.3 mph58%29.86 "Hg5 mi
8:00 AM81 °FScattered clouds.3 mph58%29.86 "Hg5 mi
7:00 AM77 °FScattered clouds.7 mph65%29.83 "HgN/A
6:30 AM77 °FPassing clouds.5 mph65%29.83 "HgN/A
6:00 AM77 °FPassing clouds.3 mph69%29.86 "HgN/A
5:00 AM77 °FPassing clouds.6 mph69%29.86 "HgN/A
4:00 AM75 °FPassing clouds.5 mph78%29.89 "HgN/A
3:30 AM75 °FPassing clouds.5 mph78%29.89 "HgN/A
3:00 AM73 °FClear.3 mph89%29.89 "Hg5 mi
2:30 AM73 °FMild.5 mph89%29.92 "HgN/A
12:30 AM73 °FClear.1 mph89%29.89 "Hg5 mi
12:00 AM75 °FMild.5 mph83%29.89 "Hg5 mi
11:30 PM
Fri, Aug 28
75 °FClear.2 mph83%29.89 "Hg6 mi
11:00 PM75 °FPassing clouds.3 mph83%29.89 "HgN/A
10:30 PM75 °FPassing clouds.7 mph83%29.89 "HgN/A
10:00 PM75 °FClear.3 mph78%29.89 "Hg10 mi
9:30 PM77 °FPassing clouds.5 mph74%29.89 "HgN/A
9:00 PM77 °FPassing clouds.8 mph74%29.89 "HgN/A
Weather by CustomWeather, © 2015

See weather overviewHow to use our weather pages